Regional Weather Roundup
Issued by NWS Grand Forks, ND

Home | Current Version | Previous Version | Text Only | Print | Product List | Glossary On
Versions: 1 2 3 4 5 6 7 8 9 10 11 12 13 14 15 16 17 18 19 20 21 22 23 24 25 26 27 28 29 30 31 32 33 34 35 36 37 38 39 40 41 42 43 44 45 46 47 48 49 50
230
ASUS43 KFGF 031031
RWRFGF
PRAIRIE TO PINES  WEATHER ROUNDUP
NATIONAL WEATHER SERVICE EASTERN NORTH DAKOTA/GRAND FORKS ND
500 AM CDT TUE MAY 03 2016

 **SATELLITE DATA USED TO AUGMENT SKY COVER AT AUTOMATED STATIONS**
 *****  WEATHER ACROSS EASTERN NORTH DAKOTA  *****

CITY           SKY/WX    TMP DP  RH WIND       PRES   REMARKS
GRAND FORKS    CLOUDY    49  37  63 W10       29.88F
GRAND FRKS AFB PTCLDY    50  37  61 W12       29.89F
DEVILS LAKE    PTCLDY    47  41  80 W10       29.93F
FARGO          PTCLDY    47  36  65 W9        29.94S
WAHPETON ARPT  CLOUDY    39  32  75 W5        29.96S
$$

 ***** WEATHER ACROSS CENTRAL AND WESTERN NORTH DAKOTA  *****

CITY           SKY/WX    TMP DP  RH WIND       PRES   REMARKS
BISMARCK       MOCLDY    41  39  93 W3        30.00F
MINOT          CLEAR     54  34  46 SW12      29.95S
JAMESTOWN      CLOUDY    42  38  85 W6        29.95F
MINOT AFB      CLEAR     47  36  65 W9        29.94
GARRISON         N/A     39  34  82 W5        29.99S
WILLISTON      CLEAR     44  32  62 CALM      30.02R
DICKINSON      PTCLDY    39  31  72 SW8       30.02S
HETTINGER      CLEAR     33  29  85 CALM      30.06R
$$

 *****  OTHER AIRPORT OBSERVATIONS IN OUR AREA  *****

CITY           SKY/WX    TMP DP  RH WIND       PRES   REMARKS
WALHALLA       FAIR      55  37  50 W15G25    29.84F
GRAFTON AIRPOR FAIR      50  39  66 SW13      29.87F
VALLEY CITY AR FAIR      39  39 100 W9        29.97S
CANDO          FAIR      43  37  81 W10       29.94F
CAVALIER APRT  FAIR      55  34  44 W18       29.84F
GWINNER        FAIR      39  39 100 SW8       29.97F
ROLLA          FAIR      50  36  57 W12       29.92S
 ***** THE ABOVE OBSERVATIONS ARE NON NWS ARE NOT QUALITY
       CONTROLLED AND MAY MIS-REPORT RAIN FOR SNOW...
$$

  *****  WEATHER ACROSS NORTHERN MINNESOTA  *****

CITY           SKY/WX    TMP DP  RH WIND       PRES   REMARKS
FLAG ISLAND    CLOUDY    55  36  47 W16       29.73F
WARROAD        CLOUDY    52  39  62 W12       29.79F
ROSEAU         CLOUDY    54  39  58 W12G18    29.80F
HALLOCK        PTCLDY    50  36  57 W10       29.83S
THF RVR FALLS  CLEAR     48  34  57 W10       29.88F
BAUDETTE       CLOUDY    51  34  52 W9        29.78F
WASKISH        CLOUDY    50  43  76 SW12G18   29.82F
CROOKSTON      MOCLDY    52  37  58 W13       29.89F
STEPHEN NDAWN    N/A     50  37  62 SW12        N/A
GREENBUSH NDAW   N/A     50  37  62 W10         N/A
$$
  *****  WEATHER ACROSS CENTRAL AND WEST MINNESOTA  *****

CITY           SKY/WX    TMP DP  RH WIND       PRES   REMARKS
FOSSTON        CLEAR     46  34  61 SW12      29.89F
BEMIDJI        CLEAR     49  34  56 W9        29.87S
PARK RAPIDS    CLOUDY    46  36  68 W10       29.90F
ELBOW LAKE     FAIR      43  36  74 NW6       29.97S
WADENA         CLOUDY    43  36  75 W6        29.92F
DETROIT LAKES  PTCLDY    50  36  57 W7        29.94F
MOORHEAD       CLOUDY    45  36  70 SW5       29.95S
FERGUS FALLS   CLOUDY    43  36  75 CALM      29.94F
MORRIS MN      CLEAR     43  36  75 W8        29.96S
STAPLES        CLOUDY    43  36  75 W6        29.92F
$$
  *****  WEATHER ELSEWHERE ACROSS MINNESOTA  *****

CITY           SKY/WX    TMP DP  RH WIND       PRES   REMARKS
DULUTH         CLOUDY    49  31  49 W14       29.84F
INTRNTL FALLS  CLOUDY    50  31  48 W8        29.76F
ELY            CLOUDY    46  32  57 SW7       29.78F
CLOQUET        CLOUDY    48  30  49 W9        29.85F
WHEATON        CLOUDY    48  41  76 W3        29.98F
BRAINERD       PTCLDY    37  32  82 SW5       29.91F
HIBBING        PTCLDY    45  32  60 W6        29.83F
ALEXANDRIA     CLOUDY    44  36  73 W6        29.96S
SAINT CLOUD    CLOUDY    41  35  79 CALM      29.93F
MINNEAPOLIS    CLEAR     49  37  63 SW6       29.95F
$$

  *****  WEATHER ACROSS SOUTH DAKOTA  *****

CITY           SKY/WX    TMP DP  RH WIND       PRES   REMARKS
SIOUX FALLS    CLEAR     37  34  89 CALM      30.02S
BROOKINGS      CLEAR     40  37  89 CALM      30.01S
WATERTOWN      PTCLDY    41  37  86 S3        30.00S
HURON          CLEAR     39  38  96 CALM      30.02S
SISSETON         N/A     41  35  79 NW5       29.97S
ABERDEEN       PTCLDY    35  33  92 S6        29.99F
MITCHELL       CLEAR     44  43  96 W5        30.03S
PIERRE         PTCLDY    40  38  93 SW5       30.03R
MOBRIDGE       PTCLDY    37  36  96 CALM      29.99S FOG
RAPID CITY     CLEAR     42  34  73 NW10      30.07R
$$

  *****  SOME WEATHER IN NEARBY STATES *****

CITY           SKY/WX    TMP DP  RH WIND       PRES   REMARKS
GLASGOW MT     CLEAR     46  37  71 NW6       30.04S
GREAT FALLS MT CLEAR     41  34  76 SW8       30.10S
CHEYENNE WY    CLEAR     40  28  62 NW13      30.16S
SCOTTSBLUFF NE CLEAR     39  34  82 NW8       30.10R
OMAHA NE       CLEAR     45  42  89 SE3       30.05S
DES MOINES IA  PTCLDY    46  41  82 CALM      30.04S
DAVENPORT IA   PTCLDY    40  38  93 W6        30.01S
CHICAGO IL     PTCLDY    42  35  76 W6        29.96F
EAU CLAIRE WI  CLEAR     42  38  85 SW3       29.93F
LA CROSSE WI   CLEAR     46  40  79 S5        29.97S
$$

  *****  SOME NATIONAL WEATHER *****

CITY           SKY/WX    TMP DP  RH WIND       PRES   REMARKS
LA GUARDIA NY  RAIN      53  51  93 E5        29.88R FOG
RALEIGH NC     LGT RAIN  64  63  96 CALM      29.85F
ATLANTA GA     MOCLDY    64  61  90 W8        29.89S
NEW ORLEANS LA CLOUDY    71  68  90 N9        29.91S
OKLAHOMA CITY  PTCLDY    43  41  93 SW3       30.08R
ALBUQUERQUE NM MOCLDY    51  36  56 CALM      30.15F
SALT LAKE CITY CLEAR     49  35  58 S6        30.18S
LOS ANGELES CA CLEAR     58  54  86 W3        29.96F
BOISE ID       CLEAR     54  32  43 SE12      30.10R
SEATTLE WA     MOCLDY    60  45  57 S8        29.99R
$$

*** WEATHER ACROSS MANITOBA...SASKATCHEWAN AND ONTARIO ***
                ***ONTARIO***

CITY           SKY/WX    TMP DP  RH WIND       PRES   REMARKS
GERALDTON      CLOUDY    48  32  53 SW6       29.66F
THUNDER BAY    CLOUDY    39  34  81 CALM      29.71F
SIOUX LOOKOUT  LGT RAIN  50  34  53 NW6       29.66F
TORONTO        PTCLDY    41  37  87 N2        29.93F
BIG TROUT LK   CLOUDY    34  32  93 N10G18    29.64
PICKLE LAKE    NOT AVBL
DRYDEN         LGT RAIN  52  36  54 W13       29.67F
KENORA         MOCLDY    52  36  54 NW7       29.73F
$$
                *** MANITOBA***

CITY           SKY/WX    TMP DP  RH WIND       PRES   REMARKS
BRANDON        PTCLDY    43  36  75 NW5       29.92R
DAUPHIN        CLEAR     48  32  53 NW9       29.95R
ISLAND LAKE    MOCLDY    39  32  75 N10       29.83R
PILOT MOUND      N/A     48  36  61 W7          N/A
THE PAS        PTCLDY    39  28  65 N5        30.01R
THOMPSON       MOCLDY    37  30  75 NW8       29.97R
WINNIPEG       PTCLDY    48  37  66 NW10      29.81R
LYNN LAKE      CLEAR     30  28  93 W7        30.04R WCI  23
CHURCHILL      FLURRIES  28  25  86 N28G38    29.98R WCI  13
GILLAM         CLOUDY    32  30  93 N16G24    29.92R WCI  21
$$
                ***SASKATCHEWAN***

CITY           SKY/WX    TMP DP  RH WIND       PRES   REMARKS
ESTEVAN        CLEAR     41  32  70 W10       29.99R
KINDERSLEY     CLEAR     50  43  76 CALM      30.01S
LLOYDMINSTER   CLEAR     54  39  58 SW8       29.99F
PRINCE ALBERT  CLEAR     41  32  70 E5        30.04R
REGINA         PTCLDY    45  28  53 N5        30.01R
YORKTON        CLEAR     46  36  66 NW5       30.00R
N. BATTLEFORD  CLEAR     48  39  71 E6        30.02R
LA RONGE       CLEAR     39  28  65 NE6       30.07R
SASKATOON      CLEAR     46  41  81 NE3       30.03R
SWIFT CURRENT  CLEAR     50  36  57 SW13      30.03S
$$
NOTE: THESE ARE AUTOMATED STATIONS WITH LIMITED QUALITY CONTROL
      "FAIR" INDICATES FEW OR NO CLOUDS BELOW 12,000 FEET WITH NO
      SIGNIFICANT WEATHER AND/OR OBSTRUCTIONS TO VISIBILITY.
      SKY/WX - SKY CONDITION AND SIGNIFICANT WEATHER.
      TMP - AIR TEMPERATURE.    DP   - DEWPOINT TEMPERATURE.
      RH  - RELATIVE HUMIDITY.  PRES - PRESSURE.
      HX  - HEAT INDEX.         WCI  - WIND CHILL INDEX.
$




USA.gov is the U.S. government's official web portal to all federal, state and local government web resources and services.